This is the latest recevied weather packets stored in our database for station/object K7BC. If no packets are shown the sender has not sent any weather packets the latest 1 day(s).
| Time | Temp. | Humidity | Pressure | Rain* | Wind** | Luminosity | Snow |
|---|---|---|---|---|---|---|---|
| 1778082664 | 16.67° C | 94% | 1009.4 hPa | 0.76 mm | - | - | - |
| 1778082544 | 16.67° C | 94% | 1009.4 hPa | 1.02 mm | - | - | - |
| 1778081945 | 16.11° C | 94% | 1009.4 hPa | 1.27 mm | - | - | - |
| 1778081825 | 16.67° C | 94% | 1009.3 hPa | 1.52 mm | - | - | - |
| 1778081585 | 16.11° C | 94% | 1009.6 hPa | 1.78 mm | - | - | - |
| 1778081465 | 16.11° C | 94% | 1009.6 hPa | 1.78 mm | - | - | - |
| 1778080624 | 16.11° C | 94% | 1009.3 hPa | 1.52 mm | - | - | - |
| 1778080504 | 16.11° C | 94% | 1009.4 hPa | 1.52 mm | - | - | - |
| 1778079905 | 15.56° C | 94% | 1009.7 hPa | 1.78 mm | - | - | - |
| 1778079785 | 15.56° C | 93% | 1009.8 hPa | 1.78 mm | - | - | - |
| 1778079665 | 15.56° C | 93% | 1009.9 hPa | 1.78 mm | - | - | - |
| 1778078944 | 16.11° C | 93% | 1010.1 hPa | 2.03 mm | - | - | - |
| 1778078824 | 16.11° C | 93% | 1010.1 hPa | 2.29 mm | - | - | - |
| 1778078345 | 15.56° C | 93% | 1010.2 hPa | 2.54 mm | - | - | - |
| 1778077384 | 15.56° C | 93% | 1010.1 hPa | 2.54 mm | - | - | - |
| 1778077264 | 15.56° C | 93% | 1010.2 hPa | 2.79 mm | - | - | - |
| 1778076425 | 15.56° C | 93% | 1010 hPa | 3.56 mm | - | - | - |
| 1778076305 | 15.56° C | 93% | 1010 hPa | 3.56 mm | - | - | - |
| 1778076185 | 15.56° C | 93% | 1009.9 hPa | 3.81 mm | - | - | - |
| 1778075224 | 16.11° C | 93% | 1010.1 hPa | 2.54 mm | - | - | - |
| 1778074624 | 16.11° C | 92% | 1010.3 hPa | 2.29 mm | - | - | - |
| 1778074385 | 16.11° C | 92% | 1010.2 hPa | 2.03 mm | - | - | - |
| 1778074265 | 16.11° C | 92% | 1010.3 hPa | 1.78 mm | - | - | - |
| 1778074145 | 16.11° C | 92% | 1010.4 hPa | 1.78 mm | - | - | - |
| 1778073424 | 16.11° C | 91% | 1010.5 hPa | 1.27 mm | - | - | - |
* Rain latest hour (hover to see other rain measurements)
** Current wind speed in m/s (hover to see current wind gust speed)